Time,TemperatureF,DewpointF,PressureIn,WindDirection,WindDirectionDegrees,WindSpeedMPH,WindSpeedGustMPH,Humidity,HourlyPrecipIn,Conditions,Clouds,dailyrainin,SolarRadiationWatts/m^2,SoftwareType,DateUTC
2013-02-28 00:01:00,20.0,10.0,-100.00,SSE,150,2.0,8.0,64,0.00,,,0.03,0.000000,,2013-02-28 05:01:00,
2013-02-28 00:11:00,20.0,10.0,-100.00,SSE,150,2.0,8.0,64,0.00,,,0.03,0.000000,,2013-02-28 05:11:00,
2013-02-28 00:22:00,20.0,10.0,-100.00,SSE,150,2.0,8.0,64,0.00,,,0.03,0.000000,,2013-02-28 05:22:00,
2013-02-28 00:31:00,20.0,10.0,-100.00,SSE,150,2.0,8.0,64,0.00,,,0.03,0.000000,,2013-02-28 05:31:00,
2013-02-28 00:52:00,18.0,9.0,-100.00,ENE,78,3.0,6.0,66,0.00,,,0.03,0.000000,,2013-02-28 05:52:00,
2013-02-28 01:01:00,18.0,9.0,-100.00,ENE,78,3.0,6.0,66,0.00,,,0.03,0.000000,,2013-02-28 06:01:00,
2013-02-28 01:11:00,18.0,9.0,-100.00,ENE,78,3.0,6.0,66,0.00,,,0.03,0.000000,,2013-02-28 06:11:00,
2013-02-28 01:22:00,18.0,9.0,-100.00,ENE,78,3.0,6.0,66,0.00,,,0.03,0.000000,,2013-02-28 06:22:00,
2013-02-28 01:32:00,18.0,9.0,-100.00,ENE,78,3.0,6.0,66,0.00,,,0.03,0.000000,,2013-02-28 06:32:00,
2013-02-28 01:52:00,16.0,8.0,-100.00,SE,135,4.0,6.0,69,0.00,,,0.03,0.000000,,2013-02-28 06:52:00,
2013-02-28 02:01:00,16.0,8.0,-100.00,SE,135,4.0,6.0,69,0.00,,,0.03,0.000000,,2013-02-28 07:01:00,
2013-02-28 02:11:00,16.0,8.0,-100.00,SE,135,4.0,6.0,69,0.00,,,0.03,0.000000,,2013-02-28 07:11:00,
2013-02-28 02:21:00,16.0,8.0,-100.00,SE,135,4.0,6.0,69,0.00,,,0.03,0.000000,,2013-02-28 07:21:00,
2013-02-28 02:32:00,16.0,8.0,-100.00,SE,135,4.0,6.0,69,0.00,,,0.03,0.000000,,2013-02-28 07:32:00,
2013-02-28 02:52:00,14.0,6.0,-100.00,ESE,111,3.0,4.0,70,0.00,,,0.03,0.000000,,2013-02-28 07:52:00,
2013-02-28 03:01:00,14.0,6.0,-100.00,ESE,111,3.0,4.0,70,0.00,,,0.03,0.000000,,2013-02-28 08:01:00,
2013-02-28 03:11:00,14.0,6.0,-100.00,ESE,111,3.0,4.0,70,0.00,,,0.03,0.000000,,2013-02-28 08:11:00,
2013-02-28 03:22:00,14.0,6.0,-100.00,ESE,111,3.0,4.0,70,0.00,,,0.03,0.000000,,2013-02-28 08:22:00,
2013-02-28 03:32:00,14.0,6.0,-100.00,ESE,111,3.0,4.0,70,0.00,,,0.03,0.000000,,2013-02-28 08:32:00,
2013-02-28 03:53:00,13.0,5.0,-100.00,ENE,65,2.0,5.0,69,0.00,,,0.03,0.000000,,2013-02-28 08:53:00,
2013-02-28 04:03:00,13.0,5.0,-100.00,ENE,65,2.0,5.0,69,0.00,,,0.03,0.000000,,2013-02-28 09:03:00,
2013-02-28 04:11:00,13.0,5.0,-100.00,ENE,65,2.0,5.0,69,0.00,,,0.03,0.000000,,2013-02-28 09:11:00,
2013-02-28 04:22:00,13.0,5.0,-100.00,ENE,65,2.0,5.0,69,0.00,,,0.03,0.000000,,2013-02-28 09:22:00,
2013-02-28 04:32:00,13.0,5.0,-100.00,ENE,65,2.0,5.0,69,0.00,,,0.03,0.000000,,2013-02-28 09:32:00,
2013-02-28 04:52:00,11.0,5.0,-100.00,ESE,104,3.0,5.0,75,0.00,,,0.03,0.000000,,2013-02-28 09:52:00,
2013-02-28 05:02:00,11.0,5.0,-100.00,ESE,104,3.0,5.0,75,0.00,,,0.03,0.000000,,2013-02-28 10:02:00,
2013-02-28 05:11:00,11.0,5.0,-100.00,ESE,104,3.0,5.0,75,0.00,,,0.03,0.000000,,2013-02-28 10:11:00,
2013-02-28 05:22:00,11.0,5.0,-100.00,ESE,104,3.0,5.0,75,0.00,,,0.03,0.000000,,2013-02-28 10:22:00,
2013-02-28 05:32:00,11.0,5.0,-100.00,ESE,104,3.0,5.0,75,0.00,,,0.03,0.000000,,2013-02-28 10:32:00,
2013-02-28 05:52:00,10.0,5.0,-100.00,SE,124,4.0,5.0,79,0.00,,,0.03,0.000000,,2013-02-28 10:52:00,
2013-02-28 06:01:00,10.0,5.0,-100.00,SE,124,4.0,5.0,79,0.00,,,0.03,0.000000,,2013-02-28 11:01:00,
2013-02-28 06:11:00,10.0,5.0,-100.00,SE,124,4.0,5.0,79,0.00,,,0.03,0.000000,,2013-02-28 11:11:00,
2013-02-28 06:22:00,10.0,5.0,-100.00,SE,124,4.0,5.0,79,0.00,,,0.03,0.000000,,2013-02-28 11:22:00,
2013-02-28 06:32:00,10.0,5.0,-100.00,SE,124,4.0,5.0,79,0.00,,,0.03,0.000000,,2013-02-28 11:32:00,
2013-02-28 06:52:00,9.0,4.0,-100.00,ESE,114,4.0,5.0,78,0.00,,,0.03,0.000000,,2013-02-28 11:52:00,
2013-02-28 07:02:00,9.0,4.0,-100.00,ESE,114,4.0,5.0,78,0.00,,,0.03,0.000000,,2013-02-28 12:02:00,
2013-02-28 07:11:00,9.0,4.0,-100.00,ESE,114,4.0,5.0,78,0.00,,,0.03,0.000000,,2013-02-28 12:11:00,
2013-02-28 07:22:00,9.0,4.0,-100.00,ESE,114,4.0,5.0,78,0.00,,,0.03,0.000000,,2013-02-28 12:22:00,
2013-02-28 07:32:00,9.0,4.0,-100.00,ESE,114,4.0,5.0,78,0.00,,,0.03,0.000000,,2013-02-28 12:32:00,
2013-02-28 07:52:00,11.0,5.0,-100.00,South,189,2.0,5.0,75,0.00,,,0.03,0.000000,,2013-02-28 12:52:00,
2013-02-28 08:02:00,11.0,5.0,-100.00,South,189,2.0,5.0,75,0.00,,,0.03,0.000000,,2013-02-28 13:02:00,
2013-02-28 08:11:00,11.0,5.0,-100.00,South,189,2.0,5.0,75,0.00,,,0.03,0.000000,,2013-02-28 13:11:00,
2013-02-28 08:22:00,11.0,5.0,-100.00,South,189,2.0,5.0,75,0.00,,,0.03,0.000000,,2013-02-28 13:22:00,
2013-02-28 08:32:00,11.0,5.0,-100.00,South,189,2.0,5.0,75,0.00,,,0.03,0.000000,,2013-02-28 13:32:00,
2013-02-28 08:52:00,8.0,1.0,-100.00,ESE,112,3.0,5.0,74,0.00,,,0.03,1.000000,,2013-02-28 13:52:00,
2013-02-28 09:01:00,8.0,1.0,-100.00,ESE,112,3.0,5.0,74,0.00,,,0.03,1.000000,,2013-02-28 14:01:00,
2013-02-28 09:11:00,8.0,1.0,-100.00,ESE,112,3.0,5.0,74,0.00,,,0.03,1.000000,,2013-02-28 14:11:00,
2013-02-28 09:22:00,8.0,1.0,-100.00,ESE,112,3.0,5.0,74,0.00,,,0.03,1.000000,,2013-02-28 14:22:00,
2013-02-28 09:32:00,8.0,1.0,-100.00,ESE,112,3.0,5.0,74,0.00,,,0.03,1.000000,,2013-02-28 14:32:00,
2013-02-28 09:52:00,13.0,7.0,-100.00,SE,131,2.0,5.0,75,0.00,,,0.03,42.000000,,2013-02-28 14:52:00,
2013-02-28 10:02:00,13.0,7.0,-100.00,SE,131,2.0,5.0,75,0.00,,,0.03,42.000000,,2013-02-28 15:02:00,
2013-02-28 10:11:00,13.0,7.0,-100.00,SE,131,2.0,5.0,75,0.00,,,0.03,42.000000,,2013-02-28 15:11:00,
2013-02-28 10:21:00,13.0,7.0,-100.00,SE,131,2.0,5.0,75,0.00,,,0.03,42.000000,,2013-02-28 15:21:00,
2013-02-28 10:32:00,13.0,7.0,-100.00,SE,131,2.0,5.0,75,0.00,,,0.03,42.000000,,2013-02-28 15:32:00,
2013-02-28 10:52:00,22.0,7.0,-100.00,WNW,286,3.0,4.0,52,0.00,,,0.02,239.000000,,2013-02-28 15:52:00,
2013-02-28 11:02:00,22.0,7.0,-100.00,WNW,286,3.0,4.0,52,0.00,,,0.02,239.000000,,2013-02-28 16:02:00,
2013-02-28 11:12:00,22.0,7.0,-100.00,WNW,286,3.0,4.0,52,0.00,,,0.02,239.000000,,2013-02-28 16:12:00,
2013-02-28 11:22:00,22.0,7.0,-100.00,WNW,286,3.0,4.0,52,0.00,,,0.02,239.000000,,2013-02-28 16:22:00,
2013-02-28 11:32:00,22.0,7.0,-100.00,WNW,286,3.0,4.0,52,0.00,,,0.02,239.000000,,2013-02-28 16:32:00,
2013-02-28 11:52:00,25.0,5.0,-100.00,WSW,248,4.0,8.0,41,0.00,,,0.00,433.000000,,2013-02-28 16:52:00,
2013-02-28 12:02:00,25.0,5.0,-100.00,WSW,248,4.0,8.0,41,0.00,,,0.00,433.000000,,2013-02-28 17:02:00,
2013-02-28 12:12:00,25.0,5.0,-100.00,WSW,248,4.0,8.0,41,0.00,,,0.00,433.000000,,2013-02-28 17:12:00,
2013-02-28 12:22:00,25.0,5.0,-100.00,WSW,248,4.0,8.0,41,0.00,,,0.00,433.000000,,2013-02-28 17:22:00,
2013-02-28 12:32:00,25.0,5.0,-100.00,WSW,248,4.0,8.0,41,0.00,,,0.00,433.000000,,2013-02-28 17:32:00,
2013-02-28 12:53:00,29.0,4.0,-100.00,SSW,211,5.0,9.0,34,0.00,,,0.00,594.000000,,2013-02-28 17:53:00,
2013-02-28 13:02:00,29.0,4.0,-100.00,SSW,211,5.0,9.0,34,0.00,,,0.00,594.000000,,2013-02-28 18:02:00,
2013-02-28 13:11:00,29.0,4.0,-100.00,SSW,211,5.0,9.0,34,0.00,,,0.00,594.000000,,2013-02-28 18:11:00,
2013-02-28 13:22:00,29.0,4.0,-100.00,SSW,211,5.0,9.0,34,0.00,,,0.00,594.000000,,2013-02-28 18:22:00,
2013-02-28 13:32:00,29.0,4.0,-100.00,SSW,211,5.0,9.0,34,0.00,,,0.00,594.000000,,2013-02-28 18:32:00,
2013-02-28 13:52:00,34.0,4.0,-100.00,WSW,249,5.0,10.0,28,0.00,,,0.00,706.000000,,2013-02-28 18:52:00,
2013-02-28 14:02:00,34.0,4.0,-100.00,WSW,249,5.0,10.0,28,0.00,,,0.00,706.000000,,2013-02-28 19:02:00,
2013-02-28 14:11:00,34.0,4.0,-100.00,WSW,249,5.0,10.0,28,0.00,,,0.00,706.000000,,2013-02-28 19:11:00,
2013-02-28 14:21:00,34.0,4.0,-100.00,WSW,249,5.0,10.0,28,0.00,,,0.00,706.000000,,2013-02-28 19:21:00,
2013-02-28 14:32:00,34.0,4.0,-100.00,WSW,249,5.0,10.0,28,0.00,,,0.00,706.000000,,2013-02-28 19:32:00,
2013-02-28 14:52:00,38.0,4.0,-100.00,SW,224,5.0,13.0,24,0.00,,,0.00,758.000000,,2013-02-28 19:52:00,
2013-02-28 15:01:00,38.0,4.0,-100.00,SW,224,5.0,13.0,24,0.00,,,0.00,758.000000,,2013-02-28 20:01:00,
2013-02-28 15:12:00,38.0,4.0,-100.00,SW,224,5.0,13.0,24,0.00,,,0.00,758.000000,,2013-02-28 20:12:00,
2013-02-28 15:22:00,38.0,4.0,-100.00,SW,224,5.0,13.0,24,0.00,,,0.00,758.000000,,2013-02-28 20:22:00,
2013-02-28 15:32:00,38.0,4.0,-100.00,SW,224,5.0,13.0,24,0.00,,,0.00,758.000000,,2013-02-28 20:32:00,
2013-02-28 15:52:00,40.0,2.0,-100.00,WNW,290,11.0,18.0,20,0.00,,,0.00,749.000000,,2013-02-28 20:52:00,
2013-02-28 16:02:00,40.0,2.0,-100.00,WNW,290,11.0,18.0,20,0.00,,,0.00,749.000000,,2013-02-28 21:02:00,
2013-02-28 16:11:00,40.0,2.0,-100.00,WNW,290,11.0,18.0,20,0.00,,,0.00,749.000000,,2013-02-28 21:11:00,
2013-02-28 16:22:00,40.0,2.0,-100.00,WNW,290,11.0,18.0,20,0.00,,,0.00,749.000000,,2013-02-28 21:22:00,
2013-02-28 16:32:00,40.0,2.0,-100.00,WNW,290,11.0,18.0,20,0.00,,,0.00,749.000000,,2013-02-28 21:32:00,
2013-02-28 16:52:00,41.0,0.0,-100.00,WNW,298,12.0,21.0,17,0.00,,,0.00,673.000000,,2013-02-28 21:52:00,
2013-02-28 17:01:00,41.0,0.0,-100.00,WNW,298,12.0,21.0,17,0.00,,,0.00,673.000000,,2013-02-28 22:01:00,
2013-02-28 17:11:00,41.0,0.0,-100.00,WNW,298,12.0,21.0,17,0.00,,,0.00,673.000000,,2013-02-28 22:11:00,
2013-02-28 17:22:00,41.0,0.0,-100.00,WNW,298,12.0,21.0,17,0.00,,,0.00,673.000000,,2013-02-28 22:22:00,
2013-02-28 17:32:00,41.0,0.0,-100.00,WNW,298,12.0,21.0,17,0.00,,,0.00,673.000000,,2013-02-28 22:32:00,
2013-02-28 17:52:00,41.0,3.0,-100.00,NW,323,10.0,17.0,20,0.00,,,0.00,542.000000,,2013-02-28 22:52:00,
2013-02-28 18:01:00,41.0,3.0,-100.00,NW,323,10.0,17.0,20,0.00,,,0.00,542.000000,,2013-02-28 23:01:00,
2013-02-28 18:11:00,41.0,3.0,-100.00,NW,323,10.0,17.0,20,0.00,,,0.00,542.000000,,2013-02-28 23:11:00,
2013-02-28 18:22:00,41.0,3.0,-100.00,NW,323,10.0,17.0,20,0.00,,,0.00,542.000000,,2013-02-28 23:22:00,
2013-02-28 18:32:00,41.0,3.0,-100.00,NW,323,10.0,17.0,20,0.00,,,0.00,542.000000,,2013-02-28 23:32:00,
2013-02-28 18:53:00,40.0,1.0,-100.00,NNW,329,9.0,16.0,19,0.00,,,0.00,360.000000,,2013-02-28 23:53:00,
2013-02-28 19:01:00,40.0,1.0,-100.00,NNW,329,9.0,16.0,19,0.00,,,0.00,360.000000,,2013-03-01 00:01:00,
2013-02-28 19:11:00,40.0,1.0,-100.00,NNW,329,9.0,16.0,19,0.00,,,0.00,360.000000,,2013-03-01 00:11:00,
2013-02-28 19:22:00,40.0,1.0,-100.00,NNW,329,9.0,16.0,19,0.00,,,0.00,360.000000,,2013-03-01 00:22:00,
2013-02-28 19:32:00,40.0,1.0,-100.00,NNW,329,9.0,16.0,19,0.00,,,0.00,360.000000,,2013-03-01 00:32:00,
2013-02-28 19:52:00,38.0,2.0,-100.00,NW,322,5.0,14.0,21,0.00,,,0.00,63.000000,,2013-03-01 00:52:00,
2013-02-28 20:01:00,38.0,2.0,-100.00,NW,322,5.0,14.0,21,0.00,,,0.00,63.000000,,2013-03-01 01:01:00,
2013-02-28 20:11:00,38.0,2.0,-100.00,NW,322,5.0,14.0,21,0.00,,,0.00,63.000000,,2013-03-01 01:11:00,
2013-02-28 20:21:00,38.0,2.0,-100.00,NW,322,5.0,14.0,21,0.00,,,0.00,63.000000,,2013-03-01 01:21:00,
2013-02-28 20:32:00,38.0,2.0,-100.00,NW,322,5.0,14.0,21,0.00,,,0.00,63.000000,,2013-03-01 01:32:00,
2013-02-28 20:52:00,29.0,5.0,-100.00,ESE,117,4.0,8.0,36,0.00,,,0.00,5.000000,,2013-03-01 01:52:00,
2013-02-28 21:01:00,29.0,5.0,-100.00,ESE,117,4.0,8.0,36,0.00,,,0.00,5.000000,,2013-03-01 02:01:00,
2013-02-28 21:11:00,29.0,5.0,-100.00,ESE,117,4.0,8.0,36,0.00,,,0.00,5.000000,,2013-03-01 02:11:00,
2013-02-28 21:21:00,29.0,5.0,-100.00,ESE,117,4.0,8.0,36,0.00,,,0.00,5.000000,,2013-03-01 02:21:00,
2013-02-28 21:32:00,29.0,5.0,-100.00,ESE,117,4.0,8.0,36,0.00,,,0.00,5.000000,,2013-03-01 02:32:00,
2013-02-28 21:52:00,29.0,6.0,-100.00,South,177,4.0,6.0,37,0.00,,,0.00,0.000000,,2013-03-01 02:52:00,
2013-02-28 22:02:00,29.0,6.0,-100.00,South,177,4.0,6.0,37,0.00,,,0.00,0.000000,,2013-03-01 03:02:00,
2013-02-28 22:11:00,29.0,6.0,-100.00,South,177,4.0,6.0,37,0.00,,,0.00,0.000000,,2013-03-01 03:11:00,
2013-02-28 22:21:00,29.0,6.0,-100.00,South,177,4.0,6.0,37,0.00,,,0.00,0.000000,,2013-03-01 03:21:00,
2013-02-28 22:32:00,29.0,6.0,-100.00,South,177,4.0,6.0,37,0.00,,,0.00,0.000000,,2013-03-01 03:32:00,
2013-02-28 22:52:00,26.0,7.0,-100.00,East,90,3.0,6.0,43,0.00,,,0.00,0.000000,,2013-03-01 03:52:00,
2013-02-28 23:01:00,26.0,7.0,-100.00,East,90,3.0,6.0,43,0.00,,,0.00,0.000000,,2013-03-01 04:01:00,
2013-02-28 23:11:00,26.0,7.0,-100.00,East,90,3.0,6.0,43,0.00,,,0.00,0.000000,,2013-03-01 04:11:00,
2013-02-28 23:21:00,26.0,7.0,-100.00,East,90,3.0,6.0,43,0.00,,,0.00,0.000000,,2013-03-01 04:21:00,
2013-02-28 23:32:00,26.0,7.0,-100.00,East,90,3.0,6.0,43,0.00,,,0.00,0.000000,,2013-03-01 04:32:00,
2013-02-28 23:52:00,25.0,10.0,-100.00,East,99,3.0,7.0,53,0.00,,,-99.99,0.000000,,2013-03-01 04:52:00,